Date String (YYYY-MM-DD hh:mm:ss) UTC,Instrument flags,absolute air pressure of the measurement (hPa),sample flow rate (lpm),inlet stack bypass flow (lpm),air temperature of the measurement (°C),ambient temperature measured by the external sensor (°C),aerosol sample conditioner tube jacket temperature (°C),OPC LED temperature (°C),internal box temperature (°C),relative humidity of the measurement (%),span deviation,mass concentration of particles derived from Lorenz-Mie calculation of OPC scattering (μg/m³),mass concentration of particles derived from Lorenz-Mie calculation of OPC scattering (μg/m³),mass concentration of particles derived from Lorenz-Mie calculation of OPC scattering (μg/m³)
DateTimeUTC,F1_M11,P_M11,Q1_M11,Q2_M11,T1_M11,T2_M11,T3_M11,T4_M11,T5_M11,U1_M11,ZSPAN_M11,X0_M11,X2_M11,X1_M11
2023-11-14 15:00:00,SystemResetWarning,0831.3,5.01,000.00,026.1,025.1,000.0,034.4,027.5,5.4,0000.0,0002.34,0001.51,0001.25
2023-11-14 15:01:00,SystemResetWarning,0831.4,5.00,000.00,026.1,025.1,000.0,034.4,027.5,5.4,0000.0,0002.47,0001.48,0001.24
2023-11-14 15:02:00,SystemResetWarning,0831.4,5.00,000.00,026.1,025.1,000.0,034.4,027.5,5.4,0000.0,0002.45,0001.47,0001.23
2023-11-14 15:03:00,SystemResetWarning,0831.3,5.00,000.00,026.1,025.1,000.0,034.4,027.5,5.6,0000.0,0002.43,0001.47,0001.24
2023-11-14 15:04:00,SystemResetWarning,0831.3,5.00,000.00,026.1,025.1,000.0,034.5,027.5,5.5,0000.0,0002.40,0001.48,0001.25
2023-11-14 15:05:00,SystemResetWarning,0831.4,5.00,000.00,026.1,025.1,000.0,034.5,027.6,5.6,0000.0,0002.28,0001.46,0001.25
2023-11-14 15:06:00,SystemResetWarning,0831.5,4.99,000.00,026.1,025.1,000.0,034.5,027.6,5.5,0000.0,0002.22,0001.45,0001.26
2023-11-14 15:07:00,SystemResetWarning,0831.5,4.99,000.00,026.1,025.1,000.0,034.5,027.5,5.6,0000.0,0002.29,0001.48,0001.26
2023-11-14 15:08:00,SystemResetWarning,0831.5,4.99,000.00,026.1,025.1,000.0,034.5,027.5,5.9,0000.0,0002.33,0001.48,0001.26
2023-11-14 15:09:00,SystemResetWarning,0831.5,5.01,000.00,026.1,025.1,000.0,034.5,027.6,5.8,0000.0,0002.39,0001.48,0001.26
2023-11-14 15:10:00,SystemResetWarning,0831.5,5.01,000.00,026.1,025.1,000.0,034.5,027.6,5.6,0000.0,0002.38,0001.49,0001.25
2023-11-14 15:11:00,SystemResetWarning,0831.5,5.01,000.00,026.2,025.1,000.0,034.5,027.6,5.7,0000.0,0002.31,0001.49,0001.24
2023-11-14 15:12:00,SystemResetWarning,0831.5,5.00,000.00,026.1,025.1,000.0,034.5,027.6,5.7,0000.0,0002.22,0001.52,0001.24
2023-11-14 15:13:00,SystemResetWarning,0831.5,4.99,000.00,026.2,025.1,000.0,034.5,027.6,5.7,0000.0,0002.31,0001.57,0001.24
2023-11-14 15:14:00,SystemResetWarning,0831.6,4.99,000.00,026.2,025.1,000.0,034.5,027.6,5.8,0000.0,0002.41,0001.61,0001.25
2023-11-14 15:15:00,SystemResetWarning,0831.6,5.00,000.00,026.2,025.2,000.0,034.5,027.6,5.9,0000.0,0002.41,0001.61,0001.25
2023-11-14 15:16:00,SystemResetWarning,0831.6,5.00,000.00,026.2,025.2,000.0,034.5,027.6,5.8,0000.0,0002.34,0001.60,0001.25
2023-11-14 15:17:00,SystemResetWarning,0831.6,5.00,000.00,026.2,025.2,000.0,034.5,027.6,5.5,0000.0,0003.57,0001.60,0001.25
2023-11-14 15:18:00,SystemResetWarning,0831.6,5.00,000.00,026.2,025.2,000.0,034.5,027.6,5.4,0000.0,0003.83,0001.60,0001.24
2023-11-14 15:19:00,SystemResetWarning,0831.6,5.00,000.00,026.2,025.2,000.0,034.5,027.6,5.2,0000.0,0003.87,0001.58,0001.24
2023-11-14 15:20:00,SystemResetWarning,0831.6,4.99,000.00,026.2,025.2,000.0,034.5,027.6,5.4,0000.0,0003.87,0001.60,0001.24
2023-11-14 15:21:00,SystemResetWarning,0831.6,5.00,000.00,026.2,025.2,000.0,034.5,027.6,5.3,0000.0,0003.89,0001.59,0001.24
2023-11-14 15:22:00,SystemResetWarning,0831.5,5.00,000.00,026.2,025.2,000.0,034.5,027.7,5.4,0000.0,0003.99,0001.59,0001.24
2023-11-14 15:23:00,SystemResetWarning,0831.5,5.00,000.00,026.2,025.2,000.0,034.5,027.7,5.4,0000.0,0004.03,0001.61,0001.25
2023-11-14 15:24:00,SystemResetWarning,0831.5,5.00,000.00,026.2,025.2,000.0,034.5,027.7,5.5,0000.0,0003.94,0001.57,0001.24
2023-11-14 15:25:00,SystemResetWarning,0831.5,5.01,000.00,026.2,025.3,000.0,034.5,027.7,5.5,0000.0,0003.92,0001.55,0001.23
2023-11-14 15:26:00,SystemResetWarning,0831.5,5.01,000.00,026.3,025.3,000.0,034.5,027.7,5.6,0000.0,0003.98,0001.56,0001.21
2023-11-14 15:27:00,SystemResetWarning,0831.5,5.00,000.00,026.3,025.3,000.0,034.5,027.7,5.7,0000.0,0004.00,0001.56,0001.20
2023-11-14 15:28:00,SystemResetWarning,0831.5,5.00,000.00,026.3,025.3,000.0,034.6,027.7,5.7,0000.0,0002.78,0001.55,0001.19
2023-11-14 15:29:00,SystemResetWarning,0831.6,5.00,000.00,026.3,025.3,000.0,034.6,027.8,5.6,0000.0,0002.44,0001.52,0001.18
2023-11-14 15:30:00,SystemResetWarning,0831.6,5.00,000.00,026.3,025.4,000.0,034.6,027.8,6.0,0000.0,0002.38,0001.51,0001.18
2023-11-14 15:31:00,SystemResetWarning,0831.6,5.00,000.00,026.3,025.4,000.0,034.6,027.8,7.0,0000.0,0002.41,0001.51,0001.18
2023-11-14 15:32:00,SystemResetWarning,0831.6,5.00,000.00,026.3,025.4,000.0,034.6,027.8,6.9,0000.0,0002.84,0001.51,0001.17
2023-11-14 15:33:00,SystemResetWarning,0831.6,4.99,000.00,026.3,025.4,000.0,034.6,027.8,6.2,0000.0,0002.85,0001.51,0001.16
2023-11-14 15:34:00,SystemResetWarning,0831.6,5.00,000.00,026.4,025.5,000.0,034.6,027.8,6.7,0000.0,0002.83,0001.48,0001.15
2023-11-14 15:35:00,SystemResetWarning,0831.6,5.00,000.00,026.4,025.5,000.0,034.6,027.8,6.9,0000.0,0002.83,0001.46,0001.13
2023-11-14 15:36:00,SystemResetWarning,0831.6,5.00,000.00,026.4,025.5,000.0,034.6,027.9,6.7,0000.0,0003.03,0001.50,0001.15
2023-11-14 15:37:00,SystemResetWarning,0831.6,4.99,000.00,026.4,025.5,000.0,034.6,027.9,6.2,0000.0,0003.65,0001.61,0001.18
2023-11-14 15:38:00,SystemResetWarning,0831.6,5.00,000.00,026.4,025.6,000.0,034.7,027.9,6.0,0000.0,0004.61,0001.71,0001.23
2023-11-14 15:39:00,SystemResetWarning,0831.6,5.00,000.00,026.4,025.6,000.0,034.7,027.9,6.2,0000.0,0005.27,0001.81,0001.27
2023-11-14 15:40:00,SystemResetWarning,0831.7,4.99,000.00,026.4,025.6,000.0,034.7,027.9,6.1,0000.0,0006.75,0002.02,0001.31
2023-11-14 15:41:00,SystemResetWarning,0831.7,5.00,000.00,026.4,025.6,000.0,034.7,028.0,6.4,0000.0,0008.00,0002.27,0001.38
2023-11-14 15:42:00,SystemResetWarning,0831.7,5.00,000.00,026.5,025.6,000.0,034.7,028.0,6.1,0000.0,0009.08,0002.48,0001.43
2023-11-14 15:43:00,SystemResetWarning,0831.7,5.00,000.00,026.5,025.6,000.0,034.7,027.9,6.0,0000.0,0009.23,0002.61,0001.46
2023-11-14 15:44:00,SystemResetWarning,0831.7,5.01,000.00,026.5,025.6,000.0,034.7,028.0,6.2,0000.0,0009.63,0002.67,0001.50
2023-11-14 15:45:00,SystemResetWarning,0831.7,5.00,000.00,026.5,025.7,000.0,034.7,027.9,6.1,0000.0,0009.94,0002.76,0001.54
2023-11-14 15:46:00,SystemResetWarning,0831.7,5.00,000.00,026.5,025.7,000.0,034.7,028.0,6.1,0000.0,0010.11,0002.89,0001.60
2023-11-14 15:47:00,SystemResetWarning,0831.6,5.00,000.00,026.5,025.7,000.0,034.8,028.0,6.1,0000.0,0010.49,0003.03,0001.63
2023-11-14 15:48:00,SystemResetWarning,0831.7,5.00,000.00,026.5,025.7,000.0,034.8,028.0,6.2,0000.0,0011.29,0003.14,0001.65
2023-11-14 15:49:00,SystemResetWarning,0831.7,5.00,000.00,026.5,025.7,000.0,034.8,028.0,6.1,0000.0,0011.23,0003.21,0001.66
2023-11-14 15:50:00,SystemResetWarning,0831.7,5.00,000.00,026.6,025.7,000.0,034.8,028.0,6.1,0000.0,0011.27,0003.29,0001.66
2023-11-14 15:51:00,SystemResetWarning,0831.7,5.00,000.00,026.6,025.7,000.0,034.8,028.1,6.1,0000.0,0011.54,0003.32,0001.65
2023-11-14 15:52:00,SystemResetWarning,0831.7,5.00,000.00,026.6,025.8,000.0,034.8,028.0,6.1,0000.0,0011.54,0003.31,0001.62
2023-11-14 15:53:00,SystemResetWarning,0831.7,5.00,000.00,026.6,025.8,000.0,034.8,028.1,6.1,0000.0,0010.80,0003.29,0001.60
2023-11-14 15:54:00,SystemResetWarning,0831.7,5.00,000.00,026.6,025.8,000.0,034.8,028.1,6.3,0000.0,0010.68,0003.30,0001.60
2023-11-14 15:55:00,SystemResetWarning,0831.7,5.00,000.00,026.6,025.8,000.0,034.8,028.1,6.3,0000.0,0011.12,0003.36,0001.60
2023-11-14 15:56:00,SystemResetWarning,0831.7,4.99,000.00,026.6,025.8,000.0,034.9,028.1,6.3,0000.0,0011.87,0003.47,0001.60
2023-11-14 15:57:00,SystemResetWarning,0832.1,4.99,000.00,026.7,025.8,000.0,034.9,028.1,6.2,0000.0,0012.29,0003.48,0001.60
2023-11-14 15:58:00,SystemResetWarning,0831.7,5.00,000.00,026.7,025.8,000.0,034.9,028.1,6.3,0000.0,0012.91,0003.49,0001.60
2023-11-14 15:59:00,SystemResetWarning,0831.9,5.00,000.00,026.7,025.9,000.0,034.9,028.1,6.2,0000.0,0013.02,0003.46,0001.63
